User: anonymous   Login
Location: Monroe
(41.9160°N, 83.3980°W)
Time: 06:35:03
(UTC-04:00)
Language:

ISS - Orbit

View from above orbital plane
View from above orbital plane
View from above satellite
View from above satellite

Ground track
Ground track

The orbit data is extracted from the following two-line orbital elements,

1 25544U 98067A   16269.61284809  .00016717  00000-0  10270-3 0  9021
2 25544  51.6401 277.0682 0006810   3.0117 357.1075 15.53944959 20608
Epoch (UTC): 25 September 2016 14:42:30
Eccentricity: 0.0006810
inclination: 51.6401°
perigee height: 400 km
apogee height: 410 km
right ascension of ascending node: 277.0682°
argument of perigee: 3.0117°
revolutions per day: 15.53944959
mean anomaly at epoch: 357.1075°
orbit number at epoch: 2060

The dashed part of the orbit path shows where the satellite is in the earth's shadow,  

DLR